Location: Wildlife_Club
(35.6000°N, 81.4330°W)
Time: 10:09:51
(UTC-04:00)

A-11 Canister half - Pass Details

Date: 25 June 2019
Orbit: 1526 x 1682 km, 47.3° (Epoch: 24 August)

Event Time Altitude Azimuth Distance (km) Brightness Sun altitude
Exits shadow 05:38:47 - 252° (WSW) 4,213 10.7 -6.4°
Reaches altitude 10° 05:40:12 10° 254° (WSW) 3,771 10.4 -6.2°
Maximum altitude 05:49:36 62° 334° (NNW) 1,713 9.4 -4.6°
Drops below altitude 10° 05:58:50 10° 54° (NE) 3,699 13.1 -3.0°
Sets 06:01:56 0° 58° (ENE) 4,679 15.4 -2.5°
